Regional Weather Roundup
Issued by NWS Little Rock, AR

Home | Current Version | Previous Version | Text Only | Print | Product List | Glossary Off
Versions: 1 2 3 4 5 6 7 8 9 10 11 12 13 14 15 16 17 18 19 20 21 22 23 24 25 26 27

000
ASUS44 KLZK 190305
RWRLZK

WEATHER ROUNDUP FOR ARKANSAS
NATIONAL WEATHER SERVICE LITTLE ROCK AR
1000 PM CDT FRI APR 18 2014

NOTE: "FAIR" INDICATES FEW OR NO CLOUDS BELOW 12,000 FEET WITH NO
SIGNIFICANT WEATHER AND/OR OBSTRUCTIONS TO VISIBILITY.

ARZ001-003-010-029-190400-
NORTHWEST ARKANSAS

CITY           SKY/WX    TMP DP  RH WIND       PRES   REMARKS
FAYETTEVILLE   CLEAR     51  46  83 CALM      30.19R
FORT SMITH     CLEAR     64  43  46 CALM      30.17R
HARRISON       CLEAR     59  39  47 CALM      30.19R
BENTONVILLE    CLEAR     63  39  42 E6        30.19R
ROGERS         CLEAR     63  40  42 E6        30.20R
SILOAM SPGS    MOCLDY    61  39  44 S7        30.20R
HIGHFILL       PTCLDY    59  42  53 S5        30.18R
$$

ARZ004-005-016-190400-
NORTH CENTRAL ARKANSAS

CITY           SKY/WX    TMP DP  RH WIND       PRES   REMARKS
BATESVILLE     CLEAR     61  46  59 S3        30.18S
FLIPPIN        CLEAR     63  37  39 CALM      30.20R
MTN HOME       CLEAR     62  40  44 SE3       30.19R
$$

ARZ040-041-190400-
WEST CENTRAL ARKANSAS

CITY           SKY/WX    TMP DP  RH WIND       PRES   REMARKS
MENA           CLEAR     55  46  71 CALM      30.19R
MOUNT IDA      CLEAR     57  48  72 CALM      30.18R
$$

ARZ009-017-025-026-028-190400-
NORTHEAST ARKANSAS

CITY           SKY/WX    TMP DP  RH WIND       PRES   REMARKS
CORNING        FAIR      59  46  63 CALM      30.20S
JONESBORO      CLEAR     58  47  66 NE5       30.19R
NEWPORT        CLEAR     61  50  67 E3        30.20R
WALNUT RIDGE   CLEAR     61  48  63 NE5       30.20R
BLYTHEVILLE    MOCLDY    63  49  60 CALM      30.19R
$$

ARZ022-023-033-042-044-190400-
CENTRAL ARKANSAS

CITY           SKY/WX    TMP DP  RH WIND       PRES   REMARKS
LITTLE ROCK    CLEAR     60  48  64 CALM      30.18R
N LITTLE ROCK  CLEAR     61  50  65 CALM      30.18R
JACKSONVILLE   CLEAR     55  49  81 CALM      30.18R
SEARCY         CLEAR     57  50  78 CALM      30.19R
HOT SPRINGS    CLEAR     60  45  57 CALM      30.19R
RUSSELLVILLE   CLEAR     57  47  69 CALM      30.18R
CLINTON        FAIR      54  48  82 CALM      30.21R
$$

ARZ036-190400-
EAST ARKANSAS

CITY           SKY/WX    TMP DP  RH WIND       PRES   REMARKS
WEST MEMPHIS   CLOUDY    62  54  74 NE3       30.17R
$$

ARZ050-053-066-070-073-190400-
SOUTHWEST ARKANSAS

CITY           SKY/WX    TMP DP  RH WIND       PRES   REMARKS
ARKADELPHIA    FAIR      58  55  89 CALM      30.20R
CAMDEN         CLOUDY    61  55  82 MISG      30.19R
TEXARKANA      CLEAR     62  49  62 SE5       30.18R
EL DORADO      CLOUDY    59  56  89 CALM      30.19R
DE QUEEN       CLEAR     57  50  77 CALM      30.17R
$$

ARZ056-057-069-190400-
SOUTHEAST ARKANSAS

CITY           SKY/WX    TMP DP  RH WIND       PRES   REMARKS
PINE BLUFF     CLEAR     62  50  64 CALM      30.18R
STUTTGART      CLEAR     61  54  77 N6        30.18R
MONTICELLO     CLEAR     57  52  83 CALM      30.16R

$$





USA.gov is the U.S. government's official web portal to all federal, state and local government web resources and services.